This is the latest recevied weather packets stored in our database for station/object KD8JAM. If no packets are shown the sender has not sent any weather packets the latest 10 day(s).
| Time | Temp. | Humidity | Pressure | Rain* | Wind** | Luminosity | Snow |
|---|---|---|---|---|---|---|---|
| 1777462942 | 0° C | 99% | 1017.5 hPa | 0 mm | - | 43 W/m² | - |
| 1777462638 | -0.56° C | 99% | 1017.3 hPa | 0 mm | - | 36 W/m² | - |
| 1777462333 | -0.56° C | 99% | 1017.3 hPa | 0 mm | - | 32 W/m² | - |
| 1777462029 | -0.56° C | 99% | 1017.6 hPa | 0 mm | - | 29 W/m² | - |
| 1777461727 | -0.56° C | 99% | 1017.2 hPa | 0 mm | - | 23 W/m² | - |
| 1777461421 | -0.56° C | 99% | 1017.4 hPa | 0 mm | - | 20 W/m² | - |
| 1777461118 | -0.56° C | 99% | 1017.1 hPa | 0 mm | - | 14 W/m² | - |
| 1777460814 | -0.56° C | 99% | 1017.2 hPa | 0 mm | - | 12 W/m² | - |
| 1777460509 | -1.11° C | 99% | 1017.3 hPa | 0 mm | - | 7 W/m² | - |
| 1777460205 | -1.11° C | 99% | 1017.3 hPa | 0 mm | - | 5 W/m² | - |
| 1777459903 | -1.11° C | 99% | 1017.3 hPa | 0 mm | - | 3 W/m² | - |
| 1777459599 | -1.11° C | 99% | 1017.1 hPa | 0 mm | - | 1 W/m² | - |
| 1777459297 | -1.11° C | 99% | 1016.8 hPa | 0 mm | - | 1 W/m² | - |
| 1777458995 | -1.11° C | 99% | 1017 hPa | 0 mm | - | 0 W/m² | - |
| 1777458692 | -1.11° C | 99% | 1016.9 hPa | 0 mm | - | 0 W/m² | - |
| 1777458388 | -1.11° C | 99% | 1017 hPa | 0 mm | - | 0 W/m² | - |
| 1777458084 | -1.11° C | 99% | 1017.2 hPa | 0 mm | - | 0 W/m² | - |
| 1777457780 | -1.11° C | 99% | 1016.9 hPa | 0 mm | - | 0 W/m² | - |
| 1777457479 | -1.11° C | 99% | 1016.9 hPa | 0 mm | - | 0 W/m² | - |
| 1777457176 | -1.11° C | 99% | 1016.8 hPa | 0 mm | - | 0 W/m² | - |
| 1777456871 | -1.11° C | 99% | 1016.7 hPa | 0 mm | - | 0 W/m² | - |
| 1777456566 | -1.11° C | 99% | 1016.8 hPa | 0 mm | - | 0 W/m² | - |
| 1777456262 | -1.11° C | 99% | 1016.5 hPa | 0 mm | - | 0 W/m² | - |
| 1777455958 | -1.11° C | 99% | 1016.8 hPa | 0 mm | - | 0 W/m² | - |
| 1777455655 | -1.11° C | 99% | 1016.9 hPa | 0 mm | - | 0 W/m² | - |
* Rain latest hour (hover to see other rain measurements)
** Current wind speed in m/s (hover to see current wind gust speed)